{"data":{"norad_id":55808,"intl_designator":"2023-029N","name":"ONEWEB-0644","alt_names":[],"object_type":"PAYLOAD","status":"ACTIVE","operator":null,"country":"UK","launch_date":"2023-03-09","launch_site_code":"AFETR","launch_vehicle":null,"mission":null,"orbit_class":"UNKNOWN","rcs_meters":null,"size_class":null,"mass_kg":null,"dimensions":null,"purposes":["comms"],"wikipedia_slug":null,"has_3d_model":false,"image_url":null,"decayed_at":null,"tle_current":{"epoch":"2026-09-20T00:23:15.614016Z","epoch_age_seconds":63820,"freshness":"FRESH","line1":"1 55808U 23029N   26263.01615294  .00000202  00000+0  47269-3 0  9993","line2":"2 55808  87.9100 286.0811 0001691  83.2718 276.8607 13.19726305171412","mean_motion":13.19726305,"eccentricity":0.0001691,"inclination_deg":87.91,"raan_deg":286.0811,"arg_perigee_deg":83.2718,"mean_anomaly_deg":276.8607,"bstar":0.00047269,"rev_number":17141,"period_min":109.11353320339,"perigee_km":1184.4865097365,"apogee_km":1187.0446215842,"semimajor_km":7563.9025656604,"source":"CELESTRAK","updated_at":"2026-09-20T09:00:44.761386Z"}}}